[[{"header":{"parameterUnit":"m.s-1","parameterCategory":1,"la1":30.2991,"la2":30.254,"lo1":-89.0895,"lo2":-89.0444,"dy":0.0017,"dx":0.0017,"nx":28,"ny":28,"refTime":"2025-05-26T09:00:00:Z","depth":0,"parameterNumber":2,"parameterNumberName":"U-component_of_WINDS"},"data":[0,0,0,0,0,0,0,0,0,0,0,0,0,0,0,0,0,0,0,0,0,0,0,0,0,0,0,0,0,0,0,0,0,0,0,0,0,0,0,0,0,0,0,0,0,0,0,0,0,0,0,0,0,0,0,0,0,0,0.8123,0.8124,0,0.8252,0.8253,0.8255,0.8303,0.8303,0.8302,0.8302,0.8436,0.844,0.8444,0,0,0,0,0,0,0,0,0,0,0,0,0,0.792,0.7924,0.8123,0.8124,0.8126,0.8251,0.8253,0.8255,0.8303,0.8303,0.8302,0.8302,0.8435,0.8439,0.8444,0,0,0,0,0,0,0,0,0,0,0,0,0,0.8024,0.7925,0.8122,0.8165,0.817,0.8251,0.8253,0.8255,0.8303,0.8303,0.8302,0.8301,0.8433,0.8439,0.8445,0.8493,0,0,0.8463,0.8465,0,0,0,0,0,0,0,0,0.8018,0.8032,0.8157,0.8162,0.8168,0.8261,0.8231,0.8335,0.8303,0.8253,0.8302,0.8301,0.8378,0.8389,0.8414,0.85,0.8505,0.8463,0.8467,0.8469,0.8471,0,0,0,0,0,0,0,0.8011,0.8027,0.8174,0.8159,0.8166,0.8178,0.8192,0.8251,0.8317,0.8257,0.8261,0.8275,0.8381,0.8408,0.8418,0.8507,0.8463,0.8468,0.8472,0.8474,0.8638,0.8639,0,0,0,0,0,0,0.7997,0.802,0.817,0.8178,0.809,0.8182,0.8198,0.8232,0.8317,0.8329,0.8276,0.8277,0.8399,0.8411,0.8423,0.8484,0.8469,0.8475,0.8478,0.8638,0.8639,0.864,0,0,0,0,0,0,0.7992,0.8009,0.8165,0.81,0.8121,0.8186,0.8224,0.8234,0.8262,0.8331,0.8343,0.8291,0.8399,0.8414,0.8475,0.849,0.8478,0.8483,0.8637,0.8638,0.8639,0.8609,0,0,0,0,0,0,0.7986,0.8008,0.8026,0.81,0.8124,0.8214,0.8224,0.8237,0.8271,0.8274,0.8349,0.836,0.8399,0.8466,0.8481,0.8498,0.8488,0.8636,0.8637,0.8639,0.8609,0.8609,0.8609,0,0,0,0,0,0.7979,0.8013,0.8027,0.8045,0.8149,0.8215,0.8229,0.8272,0.8272,0.8292,0.8336,0.8358,0.8486,0.8472,0.8489,0.8508,0.8635,0.8637,0.8639,0.8609,0.8609,0.8609,0,0,0,0,0,0,0.7941,0.8024,0.804,0.8099,0.8149,0.8223,0.8249,0.8271,0.8322,0.8323,0.8376,0.8392,0.8448,0.8485,0.8467,0.8559,0.8562,0.8567,0.8533,0.8534,0.8534,0.8524,0.8493,0,0,0,0,0,0.7939,0.7985,0.8056,0.8101,0.8126,0.8183,0.8213,0.8242,0.8297,0.8318,0.8367,0.842,0.8472,0.8505,0.8557,0.8614,0.8631,0.8636,0.8636,0.8635,0.8639,0.8672,0.8675,0.8645,0.8645,0.8645,0,0,0.7936,0.7988,0.8014,0.8095,0.8137,0.8184,0.82,0.825,0.8285,0.8326,0.8386,0.8424,0.8486,0.8545,0.8573,0.8577,0.8651,0.8638,0.8637,0.8641,0.8674,0.8677,0.8679,0.8647,0.8647,0.8646,0,0,0.7955,0.7999,0.8041,0.8083,0.8146,0.8184,0.8194,0.8264,0.829,0.8351,0.8383,0.8426,0.8515,0.8557,0.8591,0.8625,0.8647,0.8641,0.8641,0.8672,0.8674,0.8676,0.8688,0.8691,0.8644,0.8644,0.8644,0,0.7944,0.8016,0.806,0.8108,0.8142,0.8181,0.8224,0.8263,0.834,0.8363,0.8366,0.8477,0.8522,0.8591,0.8599,0.8625,0.8638,0.8632,0.867,0.8673,0.8675,0.8687,0.8691,0.8643,0.8643,0.8643,0.8643,0,0.7998,0.8047,0.8074,0.8146,0.8184,0.8229,0.8281,0.8314,0.834,0.8377,0.8438,0.8493,0.8556,0.8575,0.8601,0.8648,0.8648,0.8659,0.8663,0.8676,0.8688,0.8693,0.8641,0.8642,0.8642,0.8642,0,0,0.7997,0.8093,0.8102,0.8135,0.8207,0.8246,0.8293,0.8354,0.8381,0.8433,0.8473,0.8547,0.8558,0.8596,0.8627,0.8654,0.8677,0.8663,0.8665,0.8663,0.8731,0.8722,0.8726,0.8692,0.8693,0.8694,0.8726,0,0.8025,0.8109,0.815,0.8217,0.8262,0.8299,0.834,0.8389,0.8425,0.847,0.8511,0.8561,0.8572,0.8595,0.8624,0.8668,0.8691,0.8666,0.873,0.8732,0.8713,0.8733,0.8723,0.875,0.8731,0.8732,0.8732,0,0.8069,0.8119,0.8189,0.8256,0.8276,0.8312,0.8371,0.8413,0.8469,0.8494,0.8535,0.8565,0.8617,0.8617,0.8688,0.867,0.8699,0.8724,0.8726,0.8734,0.8732,0.874,0.876,0.8764,0.874,0.874,0.8739,0,0.8059,0.8145,0.8198,0.8225,0.8304,0.8328,0.8362,0.8418,0.8452,0.8504,0.8526,0.8583,0.8614,0.8658,0.8703,0.87,0.877,0.8774,0.8792,0.879,0.8804,0.8803,0.8829,0.8824,0.8824,0.8824,0.8824,0,0.8086,0.8127,0.8195,0.8227,0.8275,0.8322,0.8368,0.8405,0.8455,0.8495,0.8532,0.8569,0.8627,0.8672,0.8707,0.876,0.8775,0.8796,0.8805,0.8792,0.8789,0.8812,0.8811,0.8825,0.8825,0.8824,0.8824,0,0.8083,0.813,0.819,0.8259,0.8278,0.831,0.837,0.8403,0.8441,0.8492,0.8507,0.8566,0.8621,0.867,0.8744,0.8768,0.8821,0.8833,0.8802,0.8806,0.8821,0.8819,0.8862,0.887,0.8859,0.8859,0.8859,0,0.8096,0.8129,0.8201,0.8231,0.8264,0.8311,0.8345,0.8393,0.8427,0.8494,0.8519,0.8576,0.8624,0.871,0.8761,0.8817,0.883,0.8841,0.8838,0.8824,0.8829,0.8826,0.883,0.884,0.884,0.884,0.884,0,0.8114,0.8136,0.8183,0.8238,0.8278,0.8324,0.8372,0.8394,0.8451,0.8488,0.8543,0.8581,0.8655,0.8711,0.8772,0.8809,0.8834,0.884,0.8847,0.8835,0.8815,0.8825,0.88,0.8839,0.8839,0.8839,0.8839,0.8839,0.812,0.815,0.8206,0.8257,0.8297,0.8341,0.8375,0.8417,0.8464,0.8527,0.8553,0.8609,0.8665,0.875,0.8786,0.8832,0.8837,0.8847,0.8849,0.8851,0.8848,0.8808,0.8843,0.8843,0.8844,0.8844,0.8844,0,0.8139,0.8177,0.8223,0.8288,0.8328,0.8348,0.8401,0.8434,0.8483,0.8532,0.8578,0.8642,0.8697,0.8752,0.8809,0.8835,0.8848,0.8849,0.8847,0.8855,0.8841,0.8829,0.8837,0.8837,0.8837,0.8837,0.8837,0.8837,0.8154,0.8206,0.8234,0.8306,0.8344,0.8399,0.8427,0.8468,0.8507,0.8577,0.8622,0.8657,0.8708,0.877,0.8821,0.8836,0.8855,0.8853,0.887,0.8856,0.8856,0.8856,0.8845,0.8857,0.8857,0.8881,0.8881,0.8881]},{"header":{"parameterUnit":"m.s-1","parameterCategory":1,"la1":30.2991,"la2":30.254,"lo1":-89.0895,"lo2":-89.0444,"dy":0.0017,"dx":0.0017,"nx":28,"ny":28,"refTime":"2025-05-26T09:00:00:Z","depth":0,"parameterNumber":3,"parameterNumberName":"V-component_of_WINDS"},"data":[0,0,0,0,0,0,0,0,0,0,0,0,0,0,0,0,0,0,0,0,0,0,0,0,0,0,0,0,0,0,0,0,0,0,0,0,0,0,0,0,0,0,0,0,0,0,0,0,0,0,0,0,0,0,0,0,0,0,2.8731,2.8732,0,2.8794,2.8795,2.8796,2.8774,2.8772,2.8771,2.877,2.883,2.8833,2.8836,0,0,0,0,0,0,0,0,0,0,0,0,0,2.8585,2.8588,2.8731,2.8732,2.8733,2.8794,2.8795,2.8796,2.8774,2.8772,2.877,2.8769,2.8829,2.8832,2.8836,0,0,0,0,0,0,0,0,0,0,0,0,0,2.8649,2.8589,2.8731,2.8729,2.873,2.8794,2.8795,2.8796,2.8774,2.8772,2.877,2.8768,2.8828,2.8832,2.8836,2.8905,0,0,2.885,2.8851,0,0,0,0,0,0,0,0,2.8645,2.8654,2.8729,2.8729,2.873,2.8774,2.8766,2.8832,2.8775,2.8757,2.8769,2.8767,2.8813,2.8818,2.8834,2.8908,2.891,2.885,2.8853,2.8854,2.8856,0,0,0,0,0,0,0,2.8641,2.8651,2.8756,2.873,2.8731,2.8723,2.873,2.8778,2.8796,2.8759,2.8757,2.8765,2.8813,2.883,2.8836,2.8911,2.885,2.8854,2.8856,2.8858,2.9041,2.9043,0,0,0,0,0,0,2.8637,2.8648,2.8754,2.8758,2.8682,2.8728,2.8735,2.8762,2.8795,2.8798,2.8767,2.8764,2.8824,2.8831,2.8838,2.8919,2.8854,2.8859,2.8861,2.9039,2.9042,2.9044,0,0,0,0,0,0,2.8634,2.8646,2.8751,2.8702,2.8715,2.8732,2.8763,2.8764,2.8782,2.8802,2.8804,2.8782,2.8823,2.8832,2.8888,2.892,2.886,2.8864,2.9036,2.904,2.9043,2.9082,0,0,0,0,0,0,2.863,2.8645,2.8673,2.8703,2.8718,2.8803,2.8765,2.8767,2.879,2.8787,2.8816,2.8819,2.8822,2.8882,2.8892,2.8925,2.8868,2.9034,2.9038,2.9042,2.9078,2.9086,2.9093,0,0,0,0,0,2.8624,2.8681,2.8675,2.8688,2.8753,2.8804,2.8813,2.8815,2.8793,2.882,2.8832,2.8818,2.8915,2.8888,2.89,2.8934,2.9031,2.9037,2.9042,2.9074,2.9084,2.9093,0,0,0,0,0,0,2.8653,2.8685,2.8678,2.8747,2.8773,2.8801,2.8835,2.8827,2.8859,2.8854,2.8855,2.8862,2.8919,2.8933,2.8901,2.9001,2.897,2.8977,2.899,2.9,2.9008,2.9003,2.8871,0,0,0,0,0,2.8667,2.8708,2.8733,2.8791,2.8805,2.8818,2.884,2.884,2.8867,2.8877,2.8894,2.8919,2.8955,2.8979,2.9013,2.908,2.9085,2.9109,2.9117,2.9123,2.9129,2.9164,2.9174,2.9061,2.9061,2.9061,0,0,2.8697,2.872,2.8745,2.8797,2.8818,2.8858,2.8827,2.8871,2.89,2.8884,2.8938,2.8951,2.8979,2.904,2.9068,2.9053,2.9162,2.913,2.9135,2.9137,2.917,2.9181,2.919,2.9064,2.9064,2.9063,0,0,2.8772,2.8794,2.8844,2.8865,2.8897,2.8905,2.8917,2.8945,2.8954,2.9009,2.8996,2.903,2.9093,2.9112,2.9131,2.9212,2.9199,2.9223,2.9263,2.9296,2.9305,2.9313,2.934,2.935,2.9229,2.9229,2.9229,0,2.8804,2.8866,2.887,2.8915,2.8937,2.8925,2.8974,2.8994,2.9035,2.9049,2.9032,2.9109,2.9127,2.9192,2.9212,2.9228,2.924,2.9219,2.9304,2.9312,2.9319,2.9345,2.9355,2.9232,2.9231,2.9231,2.9231,0,2.8903,2.8946,2.8982,2.9023,2.9049,2.9096,2.9105,2.9131,2.9128,2.9137,2.9192,2.9213,2.9251,2.9267,2.9264,2.9331,2.932,2.9304,2.9272,2.9332,2.9356,2.9366,2.9235,2.9234,2.9234,2.9233,0,0,2.8998,2.904,2.9053,2.907,2.9104,2.9136,2.9181,2.9219,2.924,2.9269,2.9305,2.9358,2.9342,2.9363,2.9363,2.9392,2.9452,2.9372,2.9372,2.9384,2.9525,2.9536,2.9547,2.9445,2.9447,2.9449,2.9522,0,2.9074,2.9155,2.9159,2.9232,2.927,2.9259,2.9297,2.9321,2.9331,2.9363,2.9373,2.941,2.9387,2.9399,2.9428,2.9439,2.948,2.9434,2.9477,2.9478,2.9469,2.956,2.9573,2.9641,2.9531,2.9533,2.9534,0,2.9174,2.9206,2.9283,2.931,2.9326,2.9361,2.9395,2.9427,2.9453,2.9457,2.948,2.9475,2.9519,2.9487,2.9546,2.9514,2.9532,2.954,2.9542,2.9545,2.9509,2.9564,2.9663,2.9672,2.9549,2.9548,2.9547,0,2.9232,2.9295,2.9349,2.9364,2.9397,2.9422,2.9437,2.9461,2.9482,2.9512,2.9526,2.9559,2.9577,2.9603,2.9606,2.9583,2.9665,2.9633,2.9668,2.9668,2.9685,2.9683,2.9786,2.9699,2.9699,2.9699,2.9698,0,2.9316,2.9363,2.9375,2.9408,2.946,2.9463,2.9513,2.9526,2.9547,2.958,2.9572,2.9604,2.9607,2.9638,2.9641,2.9689,2.9697,2.9701,2.97,2.9701,2.97,2.9711,2.9706,2.9701,2.9701,2.97,2.97,0,2.939,2.9401,2.9458,2.9485,2.9492,2.9529,2.9551,2.9581,2.959,2.9632,2.9642,2.9655,2.9691,2.9697,2.974,2.9742,2.9798,2.9794,2.979,2.9789,2.9823,2.9819,2.9935,2.9949,2.9854,2.9855,2.9856,0,2.9442,2.9478,2.9509,2.9531,2.9547,2.9584,2.9606,2.961,2.9634,2.9665,2.9691,2.9727,2.9756,2.9815,2.9827,2.9859,2.9854,2.9893,2.9859,2.9857,2.9853,2.985,2.9853,2.9899,2.99,2.9901,2.9901,0,2.9533,2.9536,2.957,2.9605,2.9632,2.9659,2.9685,2.9704,2.9711,2.9737,2.9775,2.9798,2.9841,2.9876,2.9908,2.9921,2.9912,2.9912,2.9921,2.9921,2.9917,2.9918,2.9806,2.9909,2.9908,2.9908,2.9907,2.9907,2.9596,2.9627,2.9653,2.969,2.971,2.9734,2.9764,2.9776,2.9808,2.9845,2.9845,2.9886,2.9909,2.9951,2.9966,2.9997,2.9984,2.9998,3.0002,3.0005,3.0007,2.9913,3.0003,3.0003,3.0002,3.0002,3.0002,0,2.9685,2.9701,2.9735,2.9772,2.9801,2.9791,2.9819,2.9843,2.988,2.9903,2.9931,2.9974,3.0007,3.0022,3.0055,3.0076,3.0072,3.0084,3.0082,3.0085,3.0017,3.0005,3.0087,3.0087,3.0087,3.0087,3.0087,3.0087,2.9735,2.9786,2.9792,2.9852,2.9867,2.9908,2.9924,2.9946,2.9964,3.0012,3.0041,3.005,3.0069,3.0103,3.0133,3.0136,3.0147,3.0161,3.0162,3.0098,3.009,3.0082,3.007,3.0164,3.0164,3.0226,3.0227,3.0227]}]]